Simultaneous Nadir Overpasses (SNOs) Predictions

Prediction of SNOs between AQUA and NPP Satellite Orbit:

Table of predicted SNOs for the next 14.0 days since TLE Epoch: 1/31/2015
Index Date (AQUA) Time (AQUA) Lat,Lon (AQUA) SZA (AQUA ) Date (NPP) Time (NPP) Lat,Lon (NPP) SZA (NPP ) Distance(km) Time Diff (sec)
1 02/01/2015 18:35:25 63.93, 122.26 126.64 02/01/2015 18:35:08 63.93, 122.25 126.66 0.49 17
2 02/01/2015 19:23:22 -69.08, -64.73 58.31 02/01/2015 19:24:20 -69.08, -64.73 58.38 0.11 58
3 02/04/2015 10:03:58 -58.80, 66.77 49.33 02/04/2015 10:02:46 -58.80, 66.76 49.22 0.25 72
4 02/04/2015 10:51:11 66.35,-119.61 123.63 02/04/2015 10:51:13 66.35,-119.58 123.61 1.45 2
5 02/04/2015 11:36:57 -77.95, 72.13 68.58 02/04/2015 11:38:11 -77.77, 72.91 68.73 26.69 74
6 02/07/2015 02:19:46 -61.04,-175.86 52.12 02/07/2015 02:18:54 -61.04,-175.88 52.04 1.49 52
7 02/07/2015 03:07:06 68.13, -1.76 121.14 02/07/2015 03:07:28 68.14, -1.70 121.09 2.21 22
8 02/09/2015 18:35:21 -64.03, -57.64 55.71 02/09/2015 18:34:49 -64.03, -57.63 55.67 0.32 32
9 02/09/2015 19:23:11 69.35, 115.67 119.12 02/09/2015 19:23:54 69.36, 115.71 119.06 1.56 43
10 02/12/2015 10:51:07 -66.31, 60.39 58.73 02/12/2015 10:50:56 -66.32, 60.42 58.73 1.21 11




NCC Satellite Simultaneous Nadir Overpasses (SNOs) Prediction Service
